Weather History for Marshall, TX

Change the Weather History Date:

Wednesday, March 27, 2013

  Actual Average (KGGG) Record (KGGG)
Temperature  
Mean Temperature 48 °F 60 °F  
Max Temperature 64 °F 72 °F 88 °F (1991)
Min Temperature 32 °F 49 °F 26 °F (1955)
Degree Days  
Heating Degree Days 17 6  
Month to date heating degree days 232  
Since 1 July heating degree days 2136  
Cooling Degree Days 0 1  
Month to date cooling degree days 27  
Year to date cooling degree days 39  
Moisture  
Dew Point 28 °F    
Average Humidity 56    
Maximum Humidity 100    
Minimum Humidity 19    
Precipitation  
Precipitation 0.00 in 0.13 in 2.60 in (1906)
Month to date precipitation 3.81  
Year to date precipitation 11.17  
Snow  
Snow 0.00 in - - ()
Month to date snowfall  
Since 1 July snowfall  
Snow Depth -    
Sea Level Pressure  
Sea Level Pressure 30.32 in    
Wind  
Wind Speed 2 mph (SSE)    
Max Wind Speed 13 mph    
Max Gust Speed 18 mph    
Visibility 10 miles    
Events      
T = Trace of Precipitation, MM = Missing Value Source: NWS Daily Summary

Daily Weather History Graph

Daily Weather History Graph

Search for Another Location

Airport:

Trip Planner

Search our weather history database for the weather conditions in past years. The results will help you decide how hot, cold, wet, or windy it might be!

Date:

Astronomy

Mar. 27, 2013 Rise Set
Actual Time 7:11 AM CDT 7:33 PM CDT
Civil Twilight 6:46 AM CDT 7:58 PM CDT
Nautical Twilight 6:18 AM CDT 8:27 PM CDT
Astronomical Twilight 5:48 AM CDT 8:56 PM CDT
Moon 8:13 PM CDT (3/27) 7:05 AM CDT (3/27)
Length of Visible Light 13h 11m
Length of Day
12h 22m
Full, 100% of the Moon is Illuminated
Mar 27
Full
Apr 2
Last Quarter
Apr 10
New
Apr 18
First Quarter
Apr 25
Full

Hourly Weather History & Observations

Time (CDT) Temp. Windchill Dew Point Humidity Pressure Visibility Wind Dir Wind Speed Gust Speed Precip Events Conditions
12:15 AM 32.0 °F - 30.2 °F 93% 30.39 in 10.0 mi Calm Calm - N/A   Clear
12:35 AM 32.0 °F - 30.2 °F 93% 30.39 in 10.0 mi Calm Calm - N/A   Clear
12:55 AM 32.0 °F - 30.2 °F 93% 30.38 in 10.0 mi Calm Calm - N/A   Clear
1:15 AM 32.0 °F - 30.2 °F 93% 30.38 in 10.0 mi Calm Calm - N/A   Clear
1:35 AM 32.0 °F - 32.0 °F 100% 30.38 in 10.0 mi Calm Calm - N/A   Clear
1:55 AM 32.0 °F - 30.2 °F 93% 30.37 in 10.0 mi Calm Calm - N/A   Clear
2:15 AM 32.0 °F - 30.2 °F 93% 30.37 in 10.0 mi Calm Calm - N/A   Clear
2:35 AM 32.0 °F - 30.2 °F 93% 30.36 in 10.0 mi Calm Calm - N/A   Clear
2:55 AM 32.0 °F - 30.2 °F 93% 30.36 in 10.0 mi Calm Calm - N/A   Clear
3:15 AM 32.0 °F - 28.4 °F 87% 30.36 in 10.0 mi Calm Calm - N/A   Clear
3:35 AM 32.0 °F - 28.4 °F 87% 30.36 in 10.0 mi Calm Calm - N/A   Clear
3:55 AM 32.0 °F - 28.4 °F 87% 30.35 in 10.0 mi Calm Calm - N/A   Clear
4:15 AM 32.0 °F - 28.4 °F 87% 30.35 in 10.0 mi Calm Calm - N/A   Clear
4:35 AM 32.0 °F - 28.4 °F 87% 30.35 in 10.0 mi Calm Calm - N/A   Clear
4:55 AM 32.0 °F - 28.4 °F 87% 30.35 in 10.0 mi Calm Calm - N/A   Clear
5:15 AM 32.0 °F - 28.4 °F 87% 30.35 in 10.0 mi Calm Calm - N/A   Clear
5:55 AM 32.0 °F - 28.4 °F 87% 30.35 in 10.0 mi Calm Calm - N/A   Clear
6:15 AM 32.0 °F - 28.4 °F 87% 30.36 in 10.0 mi Calm Calm - N/A   Clear
6:35 AM 32.0 °F - 28.4 °F 87% 30.36 in 10.0 mi Calm Calm - N/A   Clear
6:55 AM 32.0 °F - 28.4 °F 87% 30.36 in 10.0 mi Calm Calm - N/A   Clear
7:15 AM 32.0 °F - 28.4 °F 87% 30.37 in 10.0 mi Calm Calm - N/A   Clear
7:35 AM 32.0 °F - 28.4 °F 87% 30.38 in 10.0 mi Calm Calm - N/A   Clear
7:55 AM 32.0 °F - 28.4 °F 87% 30.39 in 10.0 mi Calm Calm - N/A   Clear
8:15 AM 32.0 °F - 30.2 °F 93% 30.39 in 10.0 mi Calm Calm - N/A   Clear
8:35 AM 35.6 °F 32.8 °F 28.4 °F 75% 30.40 in 10.0 mi SSE 3.5 mph - N/A   Clear
8:55 AM 37.4 °F - 30.2 °F 75% 30.41 in 10.0 mi Calm Calm - N/A   Clear
9:15 AM 42.8 °F 38.6 °F 32.0 °F 66% 30.42 in 10.0 mi South 6.9 mph - N/A   Clear
9:35 AM 44.6 °F 40.7 °F 32.0 °F 61% 30.42 in 10.0 mi South 6.9 mph - N/A   Clear
9:55 AM 46.4 °F 41.9 °F 28.4 °F 50% 30.42 in 10.0 mi SSE 9.2 mph - N/A   Clear
10:15 AM 50.0 °F - 28.4 °F 43% 30.42 in 10.0 mi SSE 12.7 mph - N/A   Clear
10:35 AM 50.0 °F - 26.6 °F 40% 30.42 in 10.0 mi SSE 9.2 mph - N/A   Clear
10:55 AM 51.8 °F - 26.6 °F 38% 30.42 in 10.0 mi South 8.1 mph - N/A   Clear
11:15 AM 51.8 °F - 24.8 °F 35% 30.41 in 10.0 mi SE 10.4 mph - N/A   Clear
11:35 AM 55.4 °F - 24.8 °F 31% 30.40 in 10.0 mi South 10.4 mph 16.1 mph N/A   Clear
11:55 AM 55.4 °F - 24.8 °F 31% 30.39 in 10.0 mi SSE 9.2 mph - N/A   Clear
12:15 PM 55.4 °F - 23.0 °F 29% 30.39 in 10.0 mi South 8.1 mph - N/A   Clear
12:35 PM 55.4 °F - 23.0 °F 29% 30.37 in 10.0 mi SSE 11.5 mph - N/A   Clear
12:55 PM 57.2 °F - 23.0 °F 27% 30.37 in 10.0 mi South 3.5 mph - N/A   Clear
1:15 PM 59.0 °F - 23.0 °F 25% 30.35 in 10.0 mi SSW 8.1 mph - N/A   Clear
1:35 PM 60.8 °F - 23.0 °F 23% 30.34 in 10.0 mi SSE 6.9 mph - N/A   Clear
1:55 PM 60.8 °F - 23.0 °F 23% 30.34 in 10.0 mi South 10.4 mph - N/A   Clear
2:15 PM 62.6 °F - 23.0 °F 22% 30.33 in 10.0 mi South 8.1 mph - N/A   Clear
2:35 PM 62.6 °F - 23.0 °F 22% 30.31 in 10.0 mi SE 8.1 mph - N/A   Clear
2:55 PM 64.4 °F - 23.0 °F 21% 30.30 in 10.0 mi ESE 5.8 mph - N/A   Clear
3:15 PM 64.4 °F - 23.0 °F 21% 30.29 in 10.0 mi SE 4.6 mph - N/A   Clear
3:35 PM 64.4 °F - 23.0 °F 21% 30.27 in 10.0 mi East 4.6 mph - N/A   Clear
3:55 PM 64.4 °F - 23.0 °F 21% 30.26 in 10.0 mi SSE 9.2 mph - N/A   Clear
4:15 PM 64.4 °F - 21.2 °F 19% 30.26 in 10.0 mi South 9.2 mph - N/A   Clear
4:35 PM 64.4 °F - 21.2 °F 19% 30.24 in 10.0 mi SSE 10.4 mph 18.4 mph N/A   Clear
4:55 PM 64.4 °F - 21.2 °F 19% 30.24 in 10.0 mi SE 11.5 mph 17.3 mph N/A   Clear
5:15 PM 64.4 °F - 21.2 °F 19% 30.23 in 10.0 mi SSE 8.1 mph - N/A   Clear
5:35 PM 64.4 °F - 21.2 °F 19% 30.22 in 10.0 mi ESE 5.8 mph - N/A   Clear
5:55 PM 64.4 °F - 23.0 °F 21% 30.21 in 10.0 mi SE 6.9 mph - N/A   Clear
6:15 PM 64.4 °F - 23.0 °F 21% 30.20 in 10.0 mi SE 6.9 mph - N/A   Clear
6:35 PM 64.4 °F - 24.8 °F 22% 30.20 in 10.0 mi SE 5.8 mph - N/A   Clear
6:55 PM 64.4 °F - 28.4 °F 26% 30.20 in 10.0 mi SE 5.8 mph - N/A   Clear
7:15 PM 62.6 °F - 28.4 °F 27% 30.20 in 10.0 mi ESE 3.5 mph - N/A   Clear
7:35 PM 59.0 °F - 28.4 °F 31% 30.20 in 10.0 mi Calm Calm - N/A   Clear
7:55 PM 57.2 °F - 30.2 °F 36% 30.20 in 10.0 mi Calm Calm - N/A   Clear
8:15 PM 51.8 °F - 33.8 °F 50% 30.21 in 10.0 mi ESE 3.5 mph - N/A   Clear
8:35 PM 55.4 °F - 32.0 °F 41% 30.21 in 10.0 mi Calm Calm - N/A   Clear
8:55 PM 51.8 °F - 33.8 °F 50% 30.22 in 10.0 mi Calm Calm - N/A   Clear
9:15 PM 50.0 °F - 35.6 °F 58% 30.22 in 10.0 mi Calm Calm - N/A   Clear
9:35 PM 46.4 °F - 33.8 °F 62% 30.23 in 10.0 mi Calm Calm - N/A   Clear
9:55 PM 46.4 °F - 35.6 °F 66% 30.24 in 10.0 mi Calm Calm - N/A   Clear
10:15 PM 44.6 °F - 33.8 °F 66% 30.24 in 10.0 mi Calm Calm - N/A   Clear
10:35 PM 44.6 °F - 33.8 °F 66% 30.25 in 10.0 mi Calm Calm - N/A   Clear
10:55 PM 44.6 °F - 35.6 °F 71% 30.26 in 10.0 mi Calm Calm - N/A   Mostly Cloudy
11:15 PM 46.4 °F - 35.6 °F 66% 30.26 in 10.0 mi Calm Calm - N/A   Mostly Cloudy
11:35 PM 46.4 °F - 35.6 °F 66% 30.26 in 10.0 mi Calm Calm - N/A   Scattered Clouds
11:55 PM 50.0 °F - 33.8 °F 54% 30.26 in 10.0 mi SSE 3.5 mph - N/A   Clear